Regional Weather Roundup
Issued by NWS

Home | Current Version | Previous Version | Graphics & Text | Print | Product List | Glossary On
Versions: 1 2 3 4 5 6 7 8 9 10 11 12 13 14 15 16 17 18 19 20 21 22 23 24 25 26 27 28 29 30 31 32 33 34 35 36 37 38 39 40 41 42 43 44 45 46 47 48 49 50
000
ASUS43 KBIS 052002
RWRND

NORTH DAKOTA REGIONAL WEATHER ROUNDUP
NATIONAL WEATHER SERVICE BISMARCK ND
200 PM CST FRI FEB 05 2016

NOTE: "FAIR" INDICATES FEW OR NO CLOUDS BELOW 12,000 FEET WITH NO
SIGNIFICANT WEATHER AND/OR OBSTRUCTIONS TO VISIBILITY.


NDZ001>003-009>011-017-052100-
NORTHWEST NORTH DAKOTA

CITY           SKY/WX    TMP DP  RH WIND       PRES   REMARKS
WILLISTON      SUNNY     34  26  72 SW10      30.11F
MINOT          SUNNY     37  19  48 SW15G23   30.09F
MINOT AFB      SUNNY     37  21  53 W12G18    30.08F
$$

NDZ018>021-031>035-040>046-052100-
SOUTHWEST NORTH DAKOTA

CITY           SKY/WX    TMP DP  RH WIND       PRES   REMARKS
BISMARCK       SUNNY     41  17  38 W14       30.16F
DICKINSON      SUNNY     38  25  59 NW18      30.10F
GARRISON         N/A     36  20  52 W15       30.11F
HETTINGER ARPT SUNNY     40  22  48 NW20G26   30.16F
$$

NDZ004>008-012>016-024-026-027-054-052100-
NORTHEAST NORTH DAKOTA

CITY           SKY/WX    TMP DP  RH WIND       PRES   REMARKS
GRAND FORKS    PTSUNNY   26  17  68 NW7       30.14S WCI  18
GRND FRKS AFB  PTSUNNY   26  17  67 NW6       30.14R WCI  20
DEVILS LAKE    SUNNY     24  18  77 SW9       30.12F WCI  14
$$

NDZ022-023-025-028>030-036>039-047>053-052100-
SOUTHEAST NORTH DAKOTA

CITY           SKY/WX    TMP DP  RH WIND       PRES   REMARKS
FARGO          PTSUNNY   31  24  75 W6        30.13S
JAMESTOWN      SUNNY     31  21  66 NW12      30.12F
$$




USA.gov is the U.S. government's official web portal to all federal, state and local government web resources and services.